North Bend, OR

11:51 AM PDT on May 23, 2018 (GMT -0700)
North Bend Municipal

Weather History for KOTH - March, 2014

Change the Weather History Date:

Tuesday, March 25, 2014

  Actual Average Record
Temperature  
Mean Temperature 54 °F 48 °F  
Max Temperature 59 °F 54 °F 71 °F (1926)
Min Temperature 48 °F 42 °F 29 °F (1922)
Degree Days  
Heating Degree Days 11 17  
Month to date heating degree days 351 434  
Since 1 July heating degree days 3148 3608  
Cooling Degree Days 0 0  
Month to date cooling degree days 0 0  
Year to date cooling degree days 0 0  
Growing Degree Days 2 (Base 50)    
Moisture  
Dew Point 46 °F    
Average Humidity 83    
Maximum Humidity 100    
Minimum Humidity 35    
Precipitation  
Precipitation 0.30 in 0.24 in 1.81 in (1962)
Month to date precipitation 2.75 6.45  
Year to date precipitation 13.47 24.23  
Sea Level Pressure  
Sea Level Pressure 29.77 in    
Wind  
Wind Speed 11 mph (South)    
Max Wind Speed 17 mph    
Max Gust Speed 30 mph    
Visibility 10 miles    
Events      
T = Trace of Precipitation, MM = Missing Value Source: NWS Daily Summary

Daily Weather History Graph

Daily Weather History Graph

Search for Another Location

Airport or City:

Astronomy

Mar. 25, 2014 Rise Set
Actual Time 7:11 AM PDT 7:35 PM PDT
Civil Twilight 6:42 AM PDT 8:04 PM PDT
Nautical Twilight 6:08 AM PDT 8:37 PM PDT
Astronomical Twilight 5:34 AM PDT 9:12 PM PDT
Moon 3:46 AM PDT (3/25) 2:04 PM PDT (3/25)
Length of Visible Light 13h 21m
Length of Day
12h 24m
Waning Crescent, 31% of the Moon is Illuminated
Mar 25
Waning Crescent
Mar 30
New
Apr 7
First Quarter
Apr 15
Full
Apr 22
Last Quarter

Hourly Weather History & Observations

Time (PDT) Temp. Dew Point Humidity Pressure Visibility Wind Dir Wind Speed Gust Speed Precip Events Conditions
12:15 AM 53.6 °F 35.6 °F 51% 29.91 in 10.0 mi South 5.8 mph - N/A   Overcast
12:35 AM 51.8 °F 37.4 °F 58% 29.89 in 10.0 mi SE 6.9 mph - N/A   Overcast
12:55 AM 53.6 °F 39.2 °F 58% 29.87 in 10.0 mi SE 9.2 mph - N/A   Overcast
1:15 AM 53.6 °F 37.4 °F 54% 29.85 in 10.0 mi SE 9.2 mph - N/A   Overcast
1:35 AM 53.6 °F 33.8 °F 47% 29.83 in 10.0 mi South 3.5 mph - N/A   Overcast
1:55 AM 53.6 °F 35.6 °F 51% 29.81 in 10.0 mi SSE 5.8 mph - N/A   Overcast
2:15 AM 55.4 °F 33.8 °F 44% 29.80 in 10.0 mi SE 9.2 mph - N/A   Overcast
2:35 AM 55.4 °F 33.8 °F 44% 29.81 in 10.0 mi SSE 5.8 mph - N/A   Overcast
2:55 AM 55.4 °F 28.4 °F 36% 29.82 in 10.0 mi South 6.9 mph - N/A   Overcast
3:15 AM 55.4 °F 35.6 °F 47% 29.83 in 10.0 mi SW 8.1 mph 21.9 mph N/A   Overcast
3:35 AM 51.8 °F 42.8 °F 71% 29.82 in 10.0 mi SSW 16.1 mph 24.2 mph 0.01 in   Overcast
3:55 AM 50.0 °F 44.6 °F 82% 29.82 in 10.0 mi SSW 12.7 mph 18.4 mph 0.04 in   Overcast
4:15 AM 48.2 °F 44.6 °F 87% 29.82 in 10.0 mi South 8.1 mph - 0.02 in   Overcast
4:35 AM 48.2 °F 46.4 °F 93% 29.80 in 10.0 mi SE 11.5 mph - 0.07 in   Overcast
4:55 AM 48.2 °F 46.4 °F 93% 29.81 in 10.0 mi SSE 13.8 mph - 0.09 in   Mostly Cloudy
5:15 AM 48.2 °F 46.4 °F 93% 29.80 in 10.0 mi SSE 11.5 mph - 0.02 in   Overcast
5:35 AM 48.2 °F 46.4 °F 93% 29.78 in 10.0 mi SE 13.8 mph - 0.02 in   Overcast
5:55 AM 48.2 °F 46.4 °F 93% 29.79 in 10.0 mi SSE 11.5 mph - 0.02 in   Overcast
6:15 AM 48.2 °F 46.4 °F 93% 29.78 in 10.0 mi SSE 13.8 mph - N/A   Overcast
6:35 AM 48.2 °F 46.4 °F 93% 29.77 in 10.0 mi SE 13.8 mph - N/A   Overcast
6:55 AM 48.2 °F 46.4 °F 93% 29.77 in 10.0 mi SE 12.7 mph - N/A   Overcast
7:15 AM 50.0 °F 46.4 °F 87% 29.76 in 10.0 mi SSE 11.5 mph - N/A   Overcast
7:35 AM 50.0 °F 46.4 °F 87% 29.76 in 10.0 mi SSE 10.4 mph - N/A   Overcast
7:55 AM 50.0 °F 48.2 °F 94% 29.76 in 9.0 mi SSE 8.1 mph - 0.01 in   Overcast
8:15 AM 48.2 °F 48.2 °F 100% 29.76 in 10.0 mi SSE 10.4 mph - 0.02 in   Overcast
8:35 AM 48.2 °F 46.4 °F 93% 29.76 in 5.0 mi SSE 9.2 mph - 0.06 in   Overcast
8:55 AM 50.0 °F 50.0 °F 100% 29.76 in 10.0 mi SSE 10.4 mph - 0.11 in   Overcast
9:15 AM 51.8 °F 51.8 °F 100% 29.76 in 5.0 mi South 11.5 mph 23.0 mph 0.01 in   Overcast
9:35 AM 53.6 °F 51.8 °F 94% 29.76 in 10.0 mi SSW 20.7 mph 26.5 mph 0.02 in   Overcast
9:55 AM 53.6 °F 51.8 °F 94% 29.77 in 10.0 mi South 17.3 mph 27.6 mph 0.02 in   Overcast
10:15 AM 55.4 °F 51.8 °F 88% 29.77 in 10.0 mi SSW 17.3 mph 26.5 mph N/A   Overcast
10:35 AM 55.4 °F 51.8 °F 88% 29.77 in 10.0 mi SSW 15.0 mph 25.3 mph N/A   Mostly Cloudy
10:55 AM 57.2 °F 51.8 °F 82% 29.77 in 10.0 mi SSW 13.8 mph 25.3 mph N/A   Scattered Clouds
11:15 AM 57.2 °F 50.0 °F 77% 29.77 in 10.0 mi SSW 16.1 mph 24.2 mph N/A   Mostly Cloudy
11:35 AM 57.2 °F 48.2 °F 72% 29.77 in 10.0 mi SSW 17.3 mph 26.5 mph N/A   Overcast
11:55 AM 57.2 °F 48.2 °F 72% 29.76 in 10.0 mi SSW 17.3 mph 27.6 mph N/A   Overcast
12:15 PM 57.2 °F 48.2 °F 72% 29.76 in 10.0 mi SSW 23.0 mph 39.1 mph N/A   Overcast
12:35 PM 57.2 °F 48.2 °F 72% 29.76 in 10.0 mi SSW 19.6 mph 38.0 mph N/A   Mostly Cloudy
12:55 PM 57.2 °F 48.2 °F 72% 29.77 in 10.0 mi SW 16.1 mph 29.9 mph N/A   Mostly Cloudy
1:15 PM 55.4 °F 48.2 °F 77% 29.78 in 10.0 mi SW 19.6 mph 34.5 mph N/A   Overcast
1:35 PM 53.6 °F 51.8 °F 94% 29.78 in 5.0 mi SW 15.0 mph 24.2 mph 0.01 in   Overcast
1:55 PM 53.6 °F 51.8 °F 94% 29.77 in 8.0 mi SW 15.0 mph 25.3 mph 0.03 in   Overcast
2:15 PM 55.4 °F 51.8 °F 88% 29.77 in 10.0 mi SSW 16.1 mph 25.3 mph N/A   Overcast
2:35 PM 57.2 °F 51.8 °F 82% 29.77 in 10.0 mi SSW 15.0 mph 32.2 mph N/A   Overcast
2:55 PM 55.4 °F 48.2 °F 77% 29.77 in 10.0 mi SSW 16.1 mph 28.8 mph N/A   Overcast
3:15 PM 55.4 °F 48.2 °F 77% 29.77 in 10.0 mi SSW 23.0 mph 32.2 mph N/A   Overcast
3:35 PM 57.2 °F 48.2 °F 72% 29.77 in 10.0 mi SW 18.4 mph 27.6 mph N/A   Overcast
3:55 PM 55.4 °F 50.0 °F 82% 29.78 in 10.0 mi SW 12.7 mph 28.8 mph N/A   Overcast
4:15 PM 55.4 °F 48.2 °F 77% 29.77 in 10.0 mi SW 20.7 mph 27.6 mph N/A   Overcast
4:35 PM 55.4 °F 48.2 °F 77% 29.77 in 10.0 mi SW 18.4 mph 29.9 mph N/A   Overcast
4:55 PM 55.4 °F 50.0 °F 82% 29.77 in 10.0 mi SW 10.4 mph 28.8 mph N/A   Overcast
5:15 PM 55.4 °F 48.2 °F 77% 29.77 in 10.0 mi SW 15.0 mph 26.5 mph N/A   Overcast
5:35 PM 51.8 °F 46.4 °F 82% 29.77 in 10.0 mi SSW 17.3 mph 21.9 mph N/A   Overcast
5:55 PM 51.8 °F 46.4 °F 82% 29.78 in 10.0 mi SSW 10.4 mph 21.9 mph 0.01 in   Mostly Cloudy
6:15 PM 50.0 °F 48.2 °F 94% 29.77 in 8.0 mi SSW 12.7 mph 18.4 mph N/A   Mostly Cloudy
6:35 PM 51.8 °F 48.2 °F 88% 29.77 in 10.0 mi SSW 6.9 mph - N/A   Overcast
6:55 PM 51.8 °F 48.2 °F 88% 29.77 in 10.0 mi SSW 9.2 mph - N/A   Mostly Cloudy
7:15 PM 51.8 °F 48.2 °F 88% 29.76 in 10.0 mi SSW 6.9 mph - N/A   Overcast
7:35 PM 50.0 °F 48.2 °F 94% 29.76 in 10.0 mi South 5.8 mph - N/A   Scattered Clouds
7:55 PM 50.0 °F 48.2 °F 94% 29.75 in 10.0 mi SSE 6.9 mph - N/A   Mostly Cloudy
8:15 PM 48.2 °F 48.2 °F 100% 29.75 in 10.0 mi South 6.9 mph - N/A   Mostly Cloudy
8:35 PM 50.0 °F 48.2 °F 94% 29.74 in 10.0 mi South 5.8 mph - N/A   Partly Cloudy
8:55 PM 48.2 °F 46.4 °F 93% 29.74 in 10.0 mi SE 6.9 mph - N/A   Scattered Clouds
9:15 PM 48.2 °F 48.2 °F 100% 29.74 in 10.0 mi SE 9.2 mph - N/A   Mostly Cloudy
9:35 PM 48.2 °F 48.2 °F 100% 29.73 in 10.0 mi SSE 8.1 mph - N/A   Overcast
9:55 PM 48.2 °F 48.2 °F 100% 29.73 in 10.0 mi SSE 6.9 mph - N/A   Overcast
10:15 PM 48.2 °F 46.4 °F 93% 29.73 in 10.0 mi SSE 4.6 mph - N/A   Overcast
10:35 PM 48.2 °F 48.2 °F 100% 29.72 in 10.0 mi SSE 4.6 mph - N/A   Overcast
10:55 PM 48.2 °F 48.2 °F 100% 29.71 in 10.0 mi SSE 6.9 mph - N/A   Overcast
11:15 PM 48.2 °F 48.2 °F 100% 29.71 in 10.0 mi SSE 6.9 mph - N/A   Overcast
11:35 PM 48.2 °F 48.2 °F 100% 29.70 in 7.0 mi SW 9.2 mph - 0.10 in   Overcast
11:55 PM 48.2 °F 46.4 °F 93% 29.70 in 10.0 mi SSE 8.1 mph - 0.10 in   Overcast